Location: Ammerl�gen
(47.2167°N, 9.6000°E)
Time: 10:48:30
(UTC+00:00)

Lacrosse 5 rocket - Pass Details

Date: 21 April 2021
Orbit: 461 x 634 km, 57.0° (Epoch: 06 May)

Event Time Altitude Azimuth Distance (km) Brightness Sun altitude
Rises 19:07:45 0° 285° (WNW) 2,675 6.8 -8.4°
Reaches altitude 10° 19:10:18 10° 301° (WNW) 1,820 5.7 -8.8°
Maximum altitude 19:13:35 22° 354° (N) 1,251 3.6 -9.3°
Drops below altitude 10° 19:17:01 10° 46° (NE) 1,908 3.9 -9.8°
Sets 19:19:45 0° 62° (ENE) 2,841 4.6 -10.2°
